TimeEDT,TemperatureF,Dew PointF,Humidity,Sea Level PressureIn,VisibilityMPH,Wind Direction,Wind SpeedMPH,Gust SpeedMPH,PrecipitationIn,Events,Conditions,WindDirDegrees,DateUTC
12:05 AM,42.8,30.2,61,30.17,10.0,West,8.1,-,N/A,,Clear,260,2012-10-12 04:05:00
12:25 AM,42.8,30.2,61,30.17,10.0,WSW,9.2,-,N/A,,Clear,250,2012-10-12 04:25:00
1:10 AM,42.8,30.2,61,30.17,10.0,WSW,8.1,-,N/A,,Clear,250,2012-10-12 05:10:00
1:30 AM,41.0,30.2,65,30.17,10.0,West,9.2,-,N/A,,Clear,260,2012-10-12 05:30:00
1:50 AM,41.0,30.2,65,30.17,10.0,West,10.4,-,N/A,,Clear,260,2012-10-12 05:50:00
2:15 AM,41.0,30.2,65,30.17,10.0,West,10.4,-,N/A,,Clear,260,2012-10-12 06:15:00
2:35 AM,41.0,30.2,65,30.16,10.0,West,8.1,18.4,N/A,,Clear,260,2012-10-12 06:35:00
2:55 AM,41.0,30.2,65,30.16,10.0,WSW,11.5,-,N/A,,Clear,250,2012-10-12 06:55:00
3:20 AM,41.0,30.2,65,30.15,10.0,West,10.4,-,N/A,,Clear,260,2012-10-12 07:20:00
3:40 AM,42.8,30.2,61,30.15,10.0,West,9.2,17.3,N/A,,Clear,260,2012-10-12 07:40:00
4:00 AM,42.8,30.2,61,30.15,10.0,West,9.2,16.1,N/A,,Clear,270,2012-10-12 08:00:00
4:20 AM,41.0,30.2,65,30.15,10.0,WSW,8.1,-,N/A,,Clear,250,2012-10-12 08:20:00
4:45 AM,41.0,32.0,70,30.15,10.0,West,9.2,-,N/A,,Clear,260,2012-10-12 08:45:00
5:45 AM,41.0,30.2,65,30.15,10.0,West,10.4,16.1,N/A,,Clear,270,2012-10-12 09:45:00
6:10 AM,41.0,30.2,65,30.15,10.0,West,10.4,18.4,N/A,,Clear,270,2012-10-12 10:10:00
6:30 AM,41.0,30.2,65,30.16,10.0,West,11.5,17.3,N/A,,Clear,260,2012-10-12 10:30:00
6:50 AM,39.2,32.0,75,30.16,10.0,West,11.5,17.3,N/A,,Clear,260,2012-10-12 10:50:00
7:10 AM,39.2,32.0,75,30.17,10.0,West,9.2,16.1,N/A,,Clear,260,2012-10-12 11:10:00
7:35 AM,41.0,32.0,70,30.18,10.0,West,11.5,19.6,N/A,,Clear,280,2012-10-12 11:35:00
7:55 AM,41.0,32.0,70,30.18,10.0,West,9.2,17.3,N/A,,Clear,270,2012-10-12 11:55:00
8:15 AM,41.0,32.0,70,30.19,10.0,West,10.4,19.6,N/A,,Clear,270,2012-10-12 12:15:00
8:35 AM,41.0,32.0,70,30.20,10.0,West,10.4,17.3,N/A,,Clear,270,2012-10-12 12:35:00
9:00 AM,41.0,32.0,70,30.21,10.0,West,13.8,23.0,N/A,,Mostly Cloudy,280,2012-10-12 13:00:00
9:40 AM,41.0,32.0,70,30.23,10.0,WNW,11.5,17.3,N/A,,Mostly Cloudy,290,2012-10-12 13:40:00
10:00 AM,41.0,33.8,76,30.23,10.0,WNW,9.2,17.3,N/A,,Overcast,300,2012-10-12 14:00:00
10:25 AM,41.0,35.6,81,30.25,10.0,WNW,8.1,16.1,N/A,,Overcast,300,2012-10-12 14:25:00
10:45 AM,39.2,35.6,87,30.26,10.0,WNW,9.2,-,N/A,,Overcast,300,2012-10-12 14:45:00
11:05 AM,37.4,37.4,100,30.26,10.0,NW,10.4,-,N/A,,Overcast,310,2012-10-12 15:05:00
12:10 PM,41.0,37.4,87,30.28,10.0,NNW,9.2,-,N/A,,Overcast,330,2012-10-12 16:10:00
12:30 PM,41.0,37.4,87,30.27,10.0,NNW,4.6,-,N/A,,Overcast,330,2012-10-12 16:30:00
12:50 PM,42.8,35.6,76,30.27,10.0,NNW,8.1,-,N/A,,Overcast,330,2012-10-12 16:50:00
1:15 PM,42.8,35.6,76,30.27,10.0,NNW,10.4,17.3,N/A,,Overcast,340,2012-10-12 17:15:00
1:35 PM,41.0,35.6,81,30.28,10.0,NW,8.1,17.3,N/A,,Overcast,320,2012-10-12 17:35:00
1:55 PM,42.8,35.6,76,30.28,10.0,NNW,10.4,-,N/A,,Overcast,340,2012-10-12 17:55:00
2:15 PM,41.0,35.6,81,30.28,10.0,NNW,6.9,-,N/A,,Overcast,340,2012-10-12 18:15:00
2:40 PM,42.8,35.6,76,30.29,10.0,North,8.1,-,N/A,,Mostly Cloudy,350,2012-10-12 18:40:00
3:00 PM,41.0,33.8,76,30.29,10.0,NW,6.9,-,N/A,,Mostly Cloudy,320,2012-10-12 19:00:00
3:20 PM,41.0,32.0,70,30.29,10.0,NNW,6.9,-,N/A,,Mostly Cloudy,330,2012-10-12 19:20:00
3:40 PM,42.8,32.0,66,30.30,10.0,NNW,8.1,16.1,N/A,,Scattered Clouds,330,2012-10-12 19:40:00
4:05 PM,44.6,32.0,61,30.30,10.0,NW,6.9,-,N/A,,Scattered Clouds,310,2012-10-12 20:05:00
4:25 PM,44.6,32.0,61,30.29,10.0,North,6.9,-,N/A,,Scattered Clouds,360,2012-10-12 20:25:00
4:45 PM,44.6,32.0,61,30.30,10.0,North,6.9,-,N/A,,Scattered Clouds,350,2012-10-12 20:45:00
5:05 PM,44.6,32.0,61,30.30,10.0,NNW,5.8,-,N/A,,Clear,340,2012-10-12 21:05:00
6:30 PM,41.0,28.4,61,30.32,10.0,NNW,4.6,-,N/A,,Clear,330,2012-10-12 22:30:00
7:15 PM,39.2,30.2,70,30.33,10.0,NNW,3.5,-,N/A,,Clear,330,2012-10-12 23:15:00
7:35 PM,37.4,30.2,75,30.33,10.0,NNW,5.8,-,N/A,,Clear,330,2012-10-12 23:35:00
7:55 PM,37.4,30.2,75,30.34,10.0,NNW,3.5,-,N/A,,Clear,330,2012-10-12 23:55:00
8:20 PM,37.4,30.2,75,30.35,10.0,North,4.6,-,N/A,,Clear,350,2012-10-13 00:20:00
9:00 PM,37.4,30.2,75,30.36,10.0,Calm,Calm,-,N/A,,Clear,0,2012-10-13 01:00:00
9:20 PM,37.4,30.2,75,30.37,10.0,Calm,Calm,-,N/A,,Clear,0,2012-10-13 01:20:00
9:45 PM,37.4,28.4,70,30.38,10.0,Calm,Calm,-,N/A,,Clear,0,2012-10-13 01:45:00
10:45 PM,37.4,28.4,70,30.38,10.0,Calm,Calm,-,N/A,,Clear,0,2012-10-13 02:45:00
11:10 PM,35.6,26.6,70,30.38,10.0,Calm,Calm,-,N/A,,Clear,0,2012-10-13 03:10:00
11:30 PM,35.6,26.6,70,30.38,10.0,East,5.8,-,N/A,,Clear,90,2012-10-13 03:30:00
11:50 PM,35.6,28.4,75,30.38,10.0,ESE,5.8,-,N/A,,Clear,110,2012-10-13 03:50:00